BZN168 MMTJ-KTUS

Flight info

Callsign BZN168
Flight time 0h 55m
Altitude 37000
Route TIJ4B TIJ UJ7 URSIX DCT ASUTA DCT GBN DINGO6
Aircraft B738/M-SDE2E3FGHIRWXY/LB1

Departure

Time 2026-04-23 23:58
Airport General Abelardo L. Rodriguez International Airport (MMTJ)

Arrival

Time 2026-04-24 00:54
Airport Tucson International Airport (KTUS)
Time Latitude Longitude Altitude Speed Heading
2026-04-23 23:34 32.54510 -116.97647 498 ft 0 kts 278°
2026-04-23 23:35 32.54510 -116.97646 498 ft 0 kts 278°
2026-04-23 23:47 32.54510 -116.97645 498 ft 0 kts 278°
2026-04-23 23:52 32.54510 -116.97646 498 ft 0 kts 280°
2026-04-23 23:52 32.54517 -116.97650 490 ft 4 kts 334°
2026-04-23 23:52 32.54521 -116.97634 494 ft 7 kts 103°
2026-04-23 23:53 32.54456 -116.97591 495 ft 7 kts 185°
2026-04-23 23:53 32.54401 -116.97568 496 ft 16 kts 124°
2026-04-23 23:53 32.54367 -116.97440 490 ft 9 kts 131°
2026-04-23 23:53 32.54326 -116.97379 490 ft 13 kts 109°
2026-04-23 23:54 32.54304 -116.97222 497 ft 23 kts 98°
2026-04-23 23:54 32.54279 -116.97038 494 ft 23 kts 97°
2026-04-23 23:54 32.54256 -116.96856 497 ft 22 kts 99°
2026-04-23 23:54 32.54233 -116.96678 494 ft 21 kts 100°
2026-04-23 23:55 32.54206 -116.96508 497 ft 21 kts 96°
2026-04-23 23:55 32.54187 -116.96341 497 ft 20 kts 98°
2026-04-23 23:55 32.54165 -116.96178 493 ft 20 kts 98°
2026-04-23 23:55 32.54144 -116.96022 492 ft 19 kts 99°
2026-04-23 23:56 32.54124 -116.95870 492 ft 18 kts 99°
2026-04-23 23:56 32.54107 -116.95723 497 ft 18 kts 96°
2026-04-23 23:56 32.54089 -116.95581 491 ft 17 kts 101°
2026-04-23 23:56 32.54069 -116.95470 492 ft 11 kts 111°
2026-04-23 23:57 32.54009 -116.95435 487 ft 11 kts 182°
2026-04-23 23:57 32.53924 -116.95453 486 ft 5 kts 207°
2026-04-23 23:57 32.53909 -116.95494 484 ft 9 kts 268°
2026-04-23 23:57 32.53937 -116.95741 490 ft 63 kts 279°
2026-04-23 23:58 32.54050 -116.96581 494 ft 140 kts 278°
2026-04-23 23:58 32.54266 -116.97929 816 ft 182 kts 282°
2026-04-23 23:58 32.54523 -116.99389 2026 ft 172 kts 279°
2026-04-23 23:58 32.54440 -117.00710 3303 ft 158 kts 244°
2026-04-23 23:59 32.53724 -117.01755 3965 ft 171 kts 228°
2026-04-23 23:59 32.53032 -117.03031 4231 ft 204 kts 255°
2026-04-23 23:59 32.52651 -117.04754 4484 ft 230 kts 253°
2026-04-23 23:59 32.52197 -117.06644 4926 ft 244 kts 255°
2026-04-24 00:00 32.51759 -117.08621 5591 ft 253 kts 256°
2026-04-24 00:00 32.51326 -117.10711 6220 ft 266 kts 258°
2026-04-24 00:00 32.50900 -117.12831 7159 ft 266 kts 258°
2026-04-24 00:00 32.50462 -117.14973 8002 ft 269 kts 253°
2026-04-24 00:01 32.49517 -117.16899 8784 ft 277 kts 226°
2026-04-24 00:01 32.47905 -117.18167 9672 ft 284 kts 203°
2026-04-24 00:01 32.45943 -117.18576 10411 ft 296 kts 181°
2026-04-24 00:01 32.43867 -117.18011 10626 ft 328 kts 158°
2026-04-24 00:02 32.41904 -117.16432 10857 ft 356 kts 138°
2026-04-24 00:02 32.40387 -117.14036 11391 ft 370 kts 118°
2026-04-24 00:02 32.39660 -117.11106 12127 ft 376 kts 94°
2026-04-24 00:02 32.40026 -117.08050 12824 ft 380 kts 67°
2026-04-24 00:03 32.41453 -117.05440 13492 ft 381 kts 40°
2026-04-24 00:03 32.43642 -117.03732 14185 ft 376 kts 22°
2026-04-24 00:03 32.45987 -117.02336 14893 ft 380 kts 26°
2026-04-24 00:03 32.48222 -117.00624 15546 ft 387 kts 32°
2026-04-24 00:04 32.50400 -116.98698 16163 ft 393 kts 33°
2026-04-24 00:04 32.52480 -116.96548 16785 ft 403 kts 47°
2026-04-24 00:04 32.53885 -116.93694 17417 ft 413 kts 68°
2026-04-24 00:04 32.54476 -116.90365 18059 ft 419 kts 84°
2026-04-24 00:05 32.54681 -116.86885 18652 ft 424 kts 86°
2026-04-24 00:05 32.54850 -116.83359 19054 ft 432 kts 86°
2026-04-24 00:05 32.55020 -116.79780 19560 ft 436 kts 85°
2026-04-24 00:05 32.55237 -116.76189 20132 ft 439 kts 85°
2026-04-24 00:06 32.55425 -116.72570 20655 ft 443 kts 86°
2026-04-24 00:06 32.55614 -116.68897 21181 ft 447 kts 86°
2026-04-24 00:06 32.55812 -116.65201 21665 ft 452 kts 85°
2026-04-24 00:06 32.56018 -116.61477 22190 ft 455 kts 85°
2026-04-24 00:07 32.56230 -116.57719 22688 ft 459 kts 85°
2026-04-24 00:07 32.56446 -116.53922 23126 ft 464 kts 85°
2026-04-24 00:07 32.56662 -116.50124 23545 ft 469 kts 85°
2026-04-24 00:07 32.56880 -116.46257 23960 ft 472 kts 85°
2026-04-24 00:08 32.57097 -116.42363 24393 ft 474 kts 86°
2026-04-24 00:08 32.57315 -116.38444 24760 ft 478 kts 86°
2026-04-24 00:08 32.57533 -116.34492 25112 ft 482 kts 86°
2026-04-24 00:08 32.57750 -116.30515 25506 ft 485 kts 86°
2026-04-24 00:09 32.57968 -116.26505 25906 ft 488 kts 86°
2026-04-24 00:09 32.58185 -116.22483 26325 ft 489 kts 86°
2026-04-24 00:09 32.58402 -116.18444 26735 ft 491 kts 86°
2026-04-24 00:09 32.58619 -116.14386 27085 ft 494 kts 86°
2026-04-24 00:10 32.58836 -116.10302 27429 ft 498 kts 86°
2026-04-24 00:10 32.59053 -116.06191 27773 ft 501 kts 86°
2026-04-24 00:10 32.59270 -116.02056 28162 ft 502 kts 86°
2026-04-24 00:10 32.59487 -115.97918 28466 ft 505 kts 86°
2026-04-24 00:11 32.59702 -115.93743 28755 ft 509 kts 86°
2026-04-24 00:11 32.59918 -115.89528 29031 ft 513 kts 86°
2026-04-24 00:11 32.60152 -115.85294 29348 ft 515 kts 84°
2026-04-24 00:11 32.60710 -115.81089 29671 ft 517 kts 75°
2026-04-24 00:12 32.61776 -115.77072 29971 ft 517 kts 68°
2026-04-24 00:12 32.63016 -115.73051 30217 ft 520 kts 68°
2026-04-24 00:12 32.64228 -115.68986 30471 ft 523 kts 69°
2026-04-24 00:12 32.65318 -115.64851 30746 ft 525 kts 75°
2026-04-24 00:13 32.65950 -115.60579 31138 ft 524 kts 82°
2026-04-24 00:13 32.66416 -115.56302 31575 ft 521 kts 82°
2026-04-24 00:13 32.66849 -115.52080 31936 ft 520 kts 83°
2026-04-24 00:13 32.67286 -115.47808 32235 ft 521 kts 82°
2026-04-24 00:14 32.67734 -115.43536 32507 ft 522 kts 82°
2026-04-24 00:14 32.68195 -115.39258 32804 ft 522 kts 82°
2026-04-24 00:14 32.68665 -115.34983 33141 ft 522 kts 82°
2026-04-24 00:14 32.69141 -115.30710 33507 ft 521 kts 82°
2026-04-24 00:15 32.69617 -115.26449 33817 ft 521 kts 82°
2026-04-24 00:15 32.70093 -115.22181 34071 ft 521 kts 82°
2026-04-24 00:15 32.70567 -115.17908 34296 ft 522 kts 82°
2026-04-24 00:15 32.71040 -115.13631 34523 ft 523 kts 82°
2026-04-24 00:16 32.71511 -115.09343 34758 ft 523 kts 82°
2026-04-24 00:16 32.71981 -115.05052 34981 ft 524 kts 82°
2026-04-24 00:16 32.72449 -115.00758 35210 ft 525 kts 82°
2026-04-24 00:16 32.72917 -114.96452 35384 ft 527 kts 82°
2026-04-24 00:17 32.73385 -114.92136 35560 ft 528 kts 82°
2026-04-24 00:17 32.73847 -114.87858 35769 ft 528 kts 82°
2026-04-24 00:17 32.74313 -114.83527 36005 ft 528 kts 82°
2026-04-24 00:17 32.74777 -114.79201 36277 ft 527 kts 82°
2026-04-24 00:18 32.75238 -114.74889 36544 ft 526 kts 82°
2026-04-24 00:18 32.75697 -114.70580 36772 ft 526 kts 82°
2026-04-24 00:18 32.76156 -114.66259 36886 ft 528 kts 82°
2026-04-24 00:18 32.76616 -114.61916 36872 ft 531 kts 82°
2026-04-24 00:19 32.77530 -114.53240 36876 ft 527 kts 82°
2026-04-24 00:19 32.78287 -114.46012 36875 ft 525 kts 82°
2026-04-24 00:20 32.79174 -114.37484 36876 ft 522 kts 82°
2026-04-24 00:20 32.80057 -114.28945 36885 ft 520 kts 83°
2026-04-24 00:21 32.80932 -114.20416 36887 ft 519 kts 82°
2026-04-24 00:21 32.81801 -114.11883 36853 ft 521 kts 83°
2026-04-24 00:22 32.82677 -114.03247 36903 ft 529 kts 83°
2026-04-24 00:22 32.83554 -113.94522 36885 ft 532 kts 83°
2026-04-24 00:23 32.84421 -113.85832 36873 ft 532 kts 83°
2026-04-24 00:23 32.85288 -113.77083 36877 ft 532 kts 83°
2026-04-24 00:24 32.86148 -113.68345 36875 ft 532 kts 83°
2026-04-24 00:24 32.87002 -113.59609 36873 ft 531 kts 83°
2026-04-24 00:25 32.87848 -113.50885 36872 ft 530 kts 83°
2026-04-24 00:25 32.88686 -113.42178 36896 ft 529 kts 83°
2026-04-24 00:26 32.89519 -113.33492 36875 ft 528 kts 83°
2026-04-24 00:26 32.90349 -113.24804 36866 ft 528 kts 83°
2026-04-24 00:27 32.91160 -113.16183 36874 ft 527 kts 83°
2026-04-24 00:27 32.91967 -113.07527 36873 ft 526 kts 83°
2026-04-24 00:28 32.92769 -112.98858 36883 ft 525 kts 84°
2026-04-24 00:28 32.93565 -112.90201 36895 ft 525 kts 84°
2026-04-24 00:29 32.94354 -112.81542 36897 ft 526 kts 84°
2026-04-24 00:29 32.94748 -112.77201 36751 ft 529 kts 84°
2026-04-24 00:29 32.95057 -112.72883 36187 ft 531 kts 90°
2026-04-24 00:30 32.94840 -112.68507 35680 ft 526 kts 101°
2026-04-24 00:30 32.94099 -112.64275 35198 ft 519 kts 110°
2026-04-24 00:30 32.92903 -112.60257 34649 ft 512 kts 120°
2026-04-24 00:30 32.91333 -112.56453 34076 ft 511 kts 121°
2026-04-24 00:31 32.89752 -112.52662 33321 ft 513 kts 121°
2026-04-24 00:31 32.88173 -112.48845 32596 ft 514 kts 121°
2026-04-24 00:31 32.86607 -112.45023 31923 ft 514 kts 120°
2026-04-24 00:31 32.85051 -112.41194 31256 ft 514 kts 120°
2026-04-24 00:32 32.83507 -112.37374 30785 ft 508 kts 120°
2026-04-24 00:32 32.81997 -112.33625 30286 ft 499 kts 120°
2026-04-24 00:32 32.80511 -112.29940 29782 ft 490 kts 120°
2026-04-24 00:32 32.79063 -112.26359 29239 ft 480 kts 120°
2026-04-24 00:33 32.77634 -112.22830 28756 ft 468 kts 120°
2026-04-24 00:33 32.76234 -112.19383 28257 ft 458 kts 120°
2026-04-24 00:33 32.74861 -112.16007 27809 ft 448 kts 120°
2026-04-24 00:33 32.73514 -112.12703 27337 ft 440 kts 120°
2026-04-24 00:34 32.72196 -112.09479 27376 ft 431 kts 116°
2026-04-24 00:34 32.70895 -112.06296 26291 ft 424 kts 120°
2026-04-24 00:34 32.69625 -112.03185 25990 ft 416 kts 119°
2026-04-24 00:34 32.68360 -112.00096 25568 ft 415 kts 120°
2026-04-24 00:35 32.67092 -111.97003 25173 ft 418 kts 120°
2026-04-24 00:35 32.65818 -111.93895 24731 ft 419 kts 120°
2026-04-24 00:35 32.64549 -111.90798 24278 ft 415 kts 120°
2026-04-24 00:35 32.63295 -111.87737 23828 ft 410 kts 120°
2026-04-24 00:36 32.62070 -111.84748 23391 ft 405 kts 120°
2026-04-24 00:36 32.60844 -111.81762 22901 ft 399 kts 120°
2026-04-24 00:36 32.59636 -111.78824 22458 ft 393 kts 120°
2026-04-24 00:36 32.58441 -111.75920 22040 ft 391 kts 120°
2026-04-24 00:37 32.57246 -111.73021 21638 ft 391 kts 119°
2026-04-24 00:37 32.56070 -111.70158 21769 ft 365 kts 120°
2026-04-24 00:37 32.55021 -111.67590 22604 ft 334 kts 120°
2026-04-24 00:37 32.53998 -111.65120 21922 ft 347 kts 121°
2026-04-24 00:38 32.52875 -111.62442 20662 ft 378 kts 120°
2026-04-24 00:38 32.51667 -111.59542 19537 ft 404 kts 119°
2026-04-24 00:38 32.50438 -111.56565 19232 ft 402 kts 118°
2026-04-24 00:38 32.48965 -111.53771 18816 ft 396 kts 138°
2026-04-24 00:39 32.46951 -111.51616 18531 ft 392 kts 144°
2026-04-24 00:39 32.44858 -111.49513 18097 ft 393 kts 144°
2026-04-24 00:39 32.42734 -111.47465 17548 ft 391 kts 146°
2026-04-24 00:39 32.40683 -111.45453 17136 ft 385 kts 143°
2026-04-24 00:40 32.38669 -111.43388 16733 ft 382 kts 143°
2026-04-24 00:40 32.36673 -111.41331 16549 ft 373 kts 143°
2026-04-24 00:40 32.34711 -111.39313 16038 ft 375 kts 143°
2026-04-24 00:40 32.32748 -111.37303 15631 ft 373 kts 143°
2026-04-24 00:41 32.30782 -111.35300 15206 ft 372 kts 143°
2026-04-24 00:41 32.28823 -111.33308 14805 ft 371 kts 143°
2026-04-24 00:41 32.26871 -111.31326 14391 ft 370 kts 143°
2026-04-24 00:41 32.24936 -111.29363 13972 ft 370 kts 143°
2026-04-24 00:42 32.22983 -111.27383 13526 ft 369 kts 143°
2026-04-24 00:42 32.21030 -111.25402 13078 ft 368 kts 143°
2026-04-24 00:42 32.19089 -111.23436 12646 ft 366 kts 143°
2026-04-24 00:42 32.17163 -111.21485 12219 ft 364 kts 143°
2026-04-24 00:43 32.15253 -111.19554 11755 ft 362 kts 142°
2026-04-24 00:43 32.13343 -111.17621 11391 ft 359 kts 142°
2026-04-24 00:43 32.11472 -111.15727 10954 ft 357 kts 142°
2026-04-24 00:43 32.09598 -111.13836 10717 ft 350 kts 142°
2026-04-24 00:44 32.07774 -111.11993 10563 ft 340 kts 142°
2026-04-24 00:44 32.06000 -111.10200 10421 ft 331 kts 142°
2026-04-24 00:44 32.04276 -111.08461 10284 ft 322 kts 142°
2026-04-24 00:44 32.02595 -111.06765 10171 ft 313 kts 142°
2026-04-24 00:45 32.00956 -111.05114 10040 ft 306 kts 142°
2026-04-24 00:45 31.99372 -111.03519 9830 ft 302 kts 142°
2026-04-24 00:45 31.97778 -111.01915 9532 ft 300 kts 142°
2026-04-24 00:45 31.96188 -111.00315 9231 ft 299 kts 142°
2026-04-24 00:46 31.94611 -110.98729 8930 ft 297 kts 142°
2026-04-24 00:46 31.93049 -110.97147 8647 ft 296 kts 140°
2026-04-24 00:46 31.91575 -110.95467 8374 ft 294 kts 137°
2026-04-24 00:46 31.90137 -110.93758 8098 ft 292 kts 137°
2026-04-24 00:47 31.88775 -110.91992 7798 ft 293 kts 124°
2026-04-24 00:47 31.88090 -110.89753 7513 ft 293 kts 95°
2026-04-24 00:47 31.88325 -110.87431 7303 ft 282 kts 68°
2026-04-24 00:47 31.89273 -110.85500 7140 ft 266 kts 46°
2026-04-24 00:48 31.90525 -110.83996 6962 ft 250 kts 42°
2026-04-24 00:48 31.91735 -110.82596 6785 ft 236 kts 42°
2026-04-24 00:48 31.92865 -110.81279 6644 ft 222 kts 42°
2026-04-24 00:48 31.93917 -110.80052 6479 ft 209 kts 41°
2026-04-24 00:49 31.94917 -110.78881 6338 ft 197 kts 41°
2026-04-24 00:49 31.95904 -110.77869 6194 ft 179 kts 20°
2026-04-24 00:49 31.97051 -110.77661 6080 ft 164 kts 345°
2026-04-24 00:49 31.98082 -110.78167 5897 ft 160 kts 317°
2026-04-24 00:50 31.98918 -110.79104 5842 ft 182 kts 313°
2026-04-24 00:50 31.99859 -110.80189 5932 ft 191 kts 313°
2026-04-24 00:50 32.00795 -110.81272 5871 ft 188 kts 312°
2026-04-24 00:50 32.01742 -110.82327 5428 ft 189 kts 314°
2026-04-24 00:51 32.02715 -110.83390 4883 ft 189 kts 311°
2026-04-24 00:51 32.03607 -110.84433 4557 ft 173 kts 312°
2026-04-24 00:51 32.04410 -110.85414 4196 ft 161 kts 311°
2026-04-24 00:51 32.05156 -110.86378 3798 ft 151 kts 310°
2026-04-24 00:52 32.05849 -110.87222 3634 ft 139 kts 311°
2026-04-24 00:52 32.06544 -110.88047 3450 ft 144 kts 311°
2026-04-24 00:52 32.07290 -110.88883 3349 ft 151 kts 307°
2026-04-24 00:52 32.08059 -110.89819 3210 ft 167 kts 317°
2026-04-24 00:53 32.08902 -110.90789 3061 ft 169 kts 313°
2026-04-24 00:53 32.09715 -110.91719 2823 ft 156 kts 313°
2026-04-24 00:53 32.10437 -110.92564 2658 ft 139 kts 311°
2026-04-24 00:53 32.11038 -110.93276 2630 ft 84 kts 316°
2026-04-24 00:54 32.11328 -110.93611 2622 ft 53 kts 316°
2026-04-24 00:54 32.11569 -110.93893 2613 ft 45 kts 315°
2026-04-24 00:54 32.11748 -110.94083 2607 ft 27 kts 335°
2026-04-24 00:54 32.11877 -110.94096 2606 ft 12 kts 14°
2026-04-24 00:55 32.11895 -110.94038 2606 ft 10 kts 113°
2026-04-24 00:55 32.11889 -110.93961 2609 ft 10 kts 60°
2026-04-24 00:55 32.11921 -110.93915 2610 ft 4 kts 52°
2026-04-24 00:55 32.11933 -110.93889 2610 ft 3 kts 68°
2026-04-24 00:56 32.11938 -110.93866 2610 ft 0 kts 92°
2026-04-24 00:57 32.11934 -110.93854 2611 ft 5 kts 115°
2026-04-24 00:57 32.11914 -110.93813 2612 ft 5 kts 100°
2026-04-24 00:57 32.11918 -110.93789 2612 ft 0 kts 78°
2026-04-24 01:00 32.11918 -110.93790 2612 ft 0 kts 78°